Tracking 20712 objects as of 28-May-2020
HD Live streaming from Space Station
objects crossing your sky now

FLOCK 3P 53

Track FLOCK 3P 53 now!
10-day predictions
FLOCK 3P 53 is classified as:


NORAD ID: 42013
Int'l Code: 2017-008BT
Perigee: 485.5 km
Apogee: 496.3 km
Inclination: 97.4 °
Period: 94.3 minutes
Semi major axis: 6861 km
RCS: Unknown
Launch date: February 15, 2017
Source: United States (US)
Launch site: SRIHARIKOTA (SRI)
aabbcc
Your satellite tracking list
Your tracking list is empty




NASA's NSSDC Master Catalog

Two Line Element Set (TLE):
1 42013U 17008BT  20148.73842056  .00001903  00000-0  73764-4 0  9990
2 42013  97.3645 217.1622 0007834  43.5601 316.6256 15.27346419182257
Source of the keplerian elements: AFSPC